Volver al catálogo

SL-14 DEB

ActivoPO
NORAD 45276·DEBRIS·🇷🇺 Russia

Lanzado Aug 15, 1991 desde Plesetsk Cosmodrome

Loading…

Próximos Pases (próximas 24 horas)

TLE

ActualizadoSource: Space-Track

Época: Sep 14, 2026, 09:56 UTC

1 45276U 91056N   26257.41403204  .00000431  00000-0  90325-3 0  9995
2 45276  82.5857  52.4943 0048084  84.6924 275.9689 13.29009726318967

Sigue SL-14 DEB en tiempo real con AllMySat

Download on the App Store